Location: Unspecified
(0.0000°N, 0.0000°E)
Time: 07:34:50
(UTC+00:00)

Vanguard 2 Rocket - Pass Details

Date: 11 October 2023
Orbit: 552 x 3312 km, 32.9° (Epoch: 06 December)

Event Time Altitude Azimuth Distance (km) Brightness Sun altitude
Rises 02:40:14 0° 221° (SW) 2,715 - -46.2°
Reaches altitude 10° 02:42:23 10° 213° (SSW) 1,858 - -45.7°
Maximum altitude 02:46:11 39° 142° (SE) 965 - -44.8°
Exits shadow 02:50:31 13° 75° (ENE) 2,195 9.3 -43.7°
Drops below altitude 10° 02:51:14 10° 73° (ENE) 2,477 9.6 -43.5°
Sets 02:54:32 0° 66° (ENE) 3,777 10.7 -42.7°
